This demonstration page uses our WeatherBlox Daily Observations layout. Learn more.

Left ArrowRight Arrow

Hourly Observations for February 25, 2022

Temp ( °F °C ) Dew Point ( °F °C ) Humidity (%) Winds ( mph kmh ) Pressure ( in mb ) Visibility ( mi km ) Precip ( " mm )
12:56 am 00:56 Clear -1 -18.3 -6 -21.1 79 79 NNW 6 9 30.54 1034 10 16 0.00 0.00
1:56 am 01:56 Clear -2 -18.9 -8 -22.2 75 75 WNW 7 11 30.55 1035 10 16 0.00 0.00
2:56 am 02:56 Clear -4 -20 -8 -22.2 83 83 NW 5 7 30.55 1035 10 16 0.00 0.00
3:56 am 03:56 Clear -5 -20.6 -9 -22.8 83 83 WNW 6 9 30.56 1035 10 16 0.00 0.00
4:56 am 04:56 Clear -3 -19.4 -7 -21.7 82 82 Calm 30.58 1036 10 16 0.00 0.00
5:56 am 05:56 Clear -7 -21.7 -11 -23.9 82 82 Calm 30.62 1037 10 16 0.00 0.00
6:56 am 06:56 Clear -6 -21.1 -11 -23.9 78 78 Calm 30.63 1037 10 16 0.00 0.00
7:56 am 07:56 Sunny -1 -18.3 -5 -20.6 82 82 Calm 30.64 1038 10 16 0.00 0.00
8:56 am 08:56 Sunny 7 -13.9 1 -17.2 76 76 SSW 6 9 30.66 1038 10 16 0.00 0.00
9:56 am 09:56 Sunny 14 -10 6 -14.4 71 71 SSW 7 11 30.64 1038 10 16 0.00 0.00
10:56 am 10:56 Sunny 20 -6.7 7 -13.9 57 57 SSW 6 9 30.64 1038 10 16 0.00 0.00
11:56 am 11:56 Sunny 25 -3.9 7 -13.9 46 46 undefined N/A 30.62 1037 10 16 0.00 0.00
12:56 pm 12:56 Sunny 29 -1.7 7 -13.9 39 39 SSW 13 20 30.57 1035 10 16 0.00 0.00
1:56 pm 13:56 Sunny 32 0 7 -13.9 35 35 SW 14 22 30.54 1034 10 16 0.00 0.00
2:56 pm 14:56 Sunny 35 1.7 4 -15.6 27 27 SSW 10 17 30.51 1033 10 16 0.00 0.00
3:56 pm 15:56 Sunny 33 0.6 2 -16.7 26 26 SW 13 20 30.50 1033 10 16 0.00 0.00
4:56 pm 16:56 Sunny 33 0.6 2 -16.7 26 26 WSW 12 19 30.50 1033 10 16 0.00 0.00
5:56 pm 17:56 Sunny 32 0 2 -16.7 27 27 SW 8 13 30.50 1033 10 16 0.00 0.00
6:56 pm 18:56 Clear 27 -2.8 5 -15 39 39 SSW 6 9 30.52 1033 10 16 0.00 0.00
7:56 pm 19:56 Clear 22 -5.6 4 -15.6 46 46 S 12 19 30.52 1034 10 16 0.00 0.00
8:56 pm 20:56 Clear 22 -5.6 4 -15.6 46 46 SSW 10 17 30.52 1033 10 16 0.00 0.00
9:56 pm 21:56 Clear 20 -6.7 4 -15.6 50 50 SSW 12 19 30.53 1034 10 16 0.00 0.00
10:56 pm 22:56 Clear 20 -6.7 4 -15.6 50 50 SSW 15 24 30.51 1033 10 16 0.00 0.00
11:56 pm 23:56 Clear 19 -7.2 4 -15.6 51 51 SSW 13 20 30.50 1033 10 16 0.00 0.00

Powered by AerisWeather